Location: Alafon
(8.4500°N, 4.2333°E)
Time: 17:10:54
(UTC+00:00)

Transit 2A - Pass Details

Date: 07 August 2021
Orbit: 595 x 964 km, 66.7° (Epoch: 18 September)

Event Time Altitude Azimuth Distance (km) Brightness Sun altitude
Rises 15:49:33 0° 307° (NW) 3,554 10.4 30.9°
Reaches altitude 10° 15:53:11 10° 285° (WNW) 2,655 10.5 30.0°
Maximum altitude 15:56:37 15° 252° (WSW) 2,320 9.6 29.2°
Drops below altitude 10° 16:00:05 10° 218° (SW) 2,693 9.2 28.4°
Sets 16:03:52 0° 196° (SSW) 3,633 9.5 27.5°
